User: anonymous   Login
Location: *
(40.7190°N, 4.2480°W)
Time: 17:58:45
(UTC+00:00)
Language:

STARLINK-1079 - Orbit

View from above orbital plane
View from above orbital plane
View from above satellite
View from above satellite

Ground track
Ground track

The orbit data is extracted from the following two-line orbital elements,

1 44937C 20001Z   20152.47981466  .00001385  00000-0  94854-4 0  1527
2 44937  53.0014  70.7348 0001428  87.4788 197.0376 15.05586379    11
Epoch (UTC): 31 May 2020 11:30:55
Eccentricity: 0.0001428
inclination: 53.0014°
perigee height: 549 km
apogee height: 551 km
right ascension of ascending node: 70.7348°
argument of perigee: 87.4788°
revolutions per day: 15.05586379
mean anomaly at epoch: 197.0376°
orbit number at epoch: 1

The dashed part of the orbit path shows where the satellite is in the earth's shadow,  

DLR